sat.trackr.live / text

‹ back to catalog

STARLINK-11304 [DTC]

NORAD 61209 · 2024-171K

PAYLOAD ACTIVE UNKNOWN

§ Identity

Operator
Country
US
Launch date
2024-09-20
Launch site
AFWTR
Launch vehicle
Mass (kg)
RCS (m²)

Purposes: comms

External: N2YO · Heavens-Above · Gunter

§ Orbital elements

Epoch: 2026-09-21T12:57:47.387520Z

Period
91.74 min
Inclination
53.1592°
Eccentricity
0.0001137
Mean motion
15.69704511 rev/d
Perigee alt
359.0 km
Apogee alt
360.5 km
Semi-major
6,737.9 km
B*
7.6837e-6
RAAN
290.4666°
Arg perigee
93.5550°
Mean anomaly
266.5598°
Rev number
11,607

§ Raw data

STARLINK-11304 [DTC]1 61209U 24171K   26264.54013180  .00000342  00000+0  76837-5 0  99992 61209  53.1592 290.4666 0001137  93.5550 266.5598 15.69704511116072

JSON: /api/v1/satellites/61209 · /tle

For live sub-satellite position, see the globe view (requires WebGL).

§ Visibility from observer

Set your observer location to see the next 7 days of passes ≥ 10°. The values pass through the URL so the page stays shareable.

No JS? Fill the form by hand. The geolocation button needs JavaScript.